This is the latest recevied weather packets stored in our database for station/object IZ8XTV-13. If no packets are shown the sender has not sent any weather packets the latest 10 day(s).
| Time | Temp. | Humidity | Pressure | Rain* | Wind** | Luminosity | Snow |
|---|---|---|---|---|---|---|---|
| 1777925148 | 17.22° C | 92% | 1019.2 hPa | 0 mm | - | - | - |
| 1777924535 | 17.22° C | 93% | 1019.1 hPa | 0 mm | - | - | - |
| 1777923924 | 17.78° C | 91% | 1019.1 hPa | 0 mm | - | - | - |
| 1777923313 | 17.78° C | 90% | 1019.1 hPa | 0 mm | - | - | - |
| 1777922702 | 17.78° C | 91% | 1019.1 hPa | 0 mm | - | - | - |
| 1777922091 | 18.33° C | 91% | 1019 hPa | 0 mm | - | - | - |
| 1777921479 | 18.33° C | 90% | 1018.9 hPa | 0 mm | - | - | - |
| 1777920868 | 18.33° C | 90% | 1018.8 hPa | 0 mm | - | - | - |
| 1777920257 | 18.33° C | 90% | 1018.7 hPa | 0 mm | - | - | - |
| 1777919646 | 20° C | 88% | 1018.6 hPa | 0 mm | - | - | - |
| 1777915251 | 20.56° C | 87% | 1018.3 hPa | 0 mm | - | - | - |
| 1777914640 | 20.56° C | 87% | 1018.4 hPa | 0 mm | - | - | - |
| 1777914029 | 20.56° C | 87% | 1018.4 hPa | 0 mm | - | - | - |
| 1777913418 | 20.56° C | 86% | 1018.2 hPa | 0 mm | - | - | - |
| 1777912805 | 20.56° C | 88% | 1018.2 hPa | 0 mm | - | - | - |
| 1777912193 | 21.11° C | 87% | 1018.3 hPa | 0 mm | - | - | - |
| 1777911582 | 21.67° C | 85% | 1018.2 hPa | 0 mm | - | - | - |
| 1777910971 | 21.67° C | 84% | 1018.3 hPa | 0 mm | - | - | - |
| 1777910359 | 22.22° C | 83% | 1018.2 hPa | 0 mm | - | - | - |
| 1777909748 | 22.78° C | 83% | 1018.3 hPa | 0 mm | - | - | - |
| 1777909137 | 23.33° C | 82% | 1018.3 hPa | 0 mm | - | - | - |
| 1777908526 | 23.89° C | 81% | 1018.3 hPa | 0 mm | - | - | - |
| 1777907914 | 23.33° C | 82% | 1018.1 hPa | 0 mm | - | - | - |
| 1777907302 | 23.89° C | 82% | 1018.1 hPa | 0 mm | - | - | - |
| 1777907286 | 23.89° C | 82% | 1018.2 hPa | 0 mm | - | - | - |
* Rain latest hour (hover to see other rain measurements)
** Current wind speed in m/s (hover to see current wind gust speed)